Regional Weather Roundup
Issued by NWS Huntsville, AL

Home | Current Version | Previous Version | Text Only | Print | Product List | Glossary On
Versions: 1 2 3 4 5 6 7 8 9 10 11 12 13 14 15 16 17 18 19 20 21 22 23 24 25 26 27 28 29 30 31 32 33 34 35 36 37 38 39 40 41 42 43 44 45 46 47 48 49 50
381
ASUS44 KHUN 290410
RWRHUN

WEATHER ROUNDUP FOR THE TENNESSEE VALLEY
NATIONAL WEATHER SERVICE HUNTSVILLE AL
1100 PM CDT FRI APR 28 2017

ALZ001>004-290500-
NORTHWEST ALABAMA

CITY           SKY/WX    TMP DP  RH WIND       PRES   REMARKS
COURTLAND HCN    N/A     77 N/A N/A S7          N/A
RUSSELLVILLE     N/A     75 N/A N/A MISG        N/A
SHOALS AIRPORT CLEAR     78  66  66 S10       29.98R
SHOALS TVA RES   N/A     77 N/A N/A MISG        N/A
$$

ALZ005>007-016-290500-
NORTH CENTRAL ALABAMA

CITY           SKY/WX    TMP DP  RH WIND       PRES   REMARKS
CULLMAN AG STN   N/A     75 N/A N/A S3          N/A
DECATUR AP     CLEAR     76  68  76 S13       30.00R
HUNTSVILLE AP  CLOUDY    74  67  78 SE6       30.00R
MERIDIANVILLE  CLEAR     77  64  65 CALM      30.01S
REDSTONE ARSN  CLOUDY    74  68  81 S6        30.00R
VINEMONT AP    FAIR      75  66  73 S10       30.04S
$$

ALZ008>010-290500-
NORTHEAST ALABAMA

CITY           SKY/WX    TMP DP  RH WIND       PRES   REMARKS
ALBERTVILLE    PTCLDY    73  72  94 S8        30.04R
FORT PAYNE     CLOUDY    73  63  68 SW3       30.05R
SCOTTSBORO AP  CLOUDY    75  66  73 SW3       30.03S
SCOTTSBORO HCN   N/A     75 N/A N/A MISG        N/A
VALLEY HEAD      N/A     73 N/A N/A MISG        N/A
$$

TNZ076-096-097-290500-
SOUTHEASTERN MIDDLE TENNESSEE

CITY           SKY/WX    TMP DP  RH WIND       PRES   REMARKS
TULLAHOMA      CLEAR     73  64  73 S10       30.01S
WINCHESTER     CLEAR     75  66  73 S6        30.02S
$$

...SURROUNDING SITES...

CITY           SKY/WX    TMP DP  RH WIND       PRES   REMARKS
ATLANTA        MOCLDY    76  67  73 S6        30.10R
ANNISTON       CLOUDY    78  68  71 S7        30.05R
BIRMINGHAM     CLOUDY    79  68  69 S10       30.06R
CHATTANOOGA    MOCLDY    74  66  76 CALM      30.05R
CORINTH        FAIR      77  68  73 S9G16     29.92R
DALTON         CLOUDY    72  66  83 SE5       30.06S
GADSDEN        CLOUDY   N/A N/A N/A S7        30.04R
GOLDEN TRNGL   PTCLDY    75  64  69 SE12      29.94R
HALEYVILLE     FAIR      75  68  78 S10       30.02R
JACKSON TN     CLEAR     79  69  71 S16       29.87S
MEMPHIS        MOCLDY    79  70  74 S18       29.85R
NASHVILLE      PTCLDY    78  67  68 S14       29.92F
OXFORD MS      FAIR      75  66  73 SE7       29.92S
ROME           CLOUDY    75  65  70 S5        30.05R
SAVANNAH       CLOUDY    77  70  78 S10       29.92R
TUPELO         CLEAR     77  67  71 SE12      29.93R
TUSCALOOSA     PTCLDY    78  70  76 S13       30.01R
$$

...GULF COAST WEATHER...

CITY           SKY/WX    TMP DP  RH WIND       PRES   REMARKS
GULFPORT       CLOUDY    78  76  93 SE17      29.98S FOG
PASCAGOULA     CLOUDY    77  72  84 SE13      30.01R
MOBILE         CLOUDY    77  72  84 SE13      30.03R
GULF SHORES    PTCLDY    74  74 100 SE10G21   30.03R
PENSACOLA      PTCLDY    76  72  87 SE14      30.03S
DESTIN         PTCLDY    77  77 100 SE10      30.05
PANAMA CITY    PTCLDY    74  71  93 CALM      30.05F
APPALACHICOLA  CLOUDY    76  75  97 SE3       30.06R
$$





USA.gov is the U.S. government's official web portal to all federal, state and local government web resources and services.